Welcome to the New NWS' Forecast!
Most changes are behind the scenes, but click here for differences you might notice.

Regional Weather Roundup (RWR)

Issued by Gray - Portland, ME (GYX)

                            
367 
ASUS41 KGYX 140410
RWRGYX
WEATHER ROUNDUP FOR MAINE AND NEW HAMPSHIRE
NATIONAL WEATHER SERVICE GRAY ME
1200 AM EDT TUE AUG 14 2018

MEZ002-005-006-010-012-015-018-020-021-024-026-027-029-140500-
MAINE
  
CITY           SKY/WX    TMP DP  RH WIND       PRES   REMARKS
PORTLAND       FOG       65  65 100 E6        30.01S VSB 3/4          
SANFORD        LGT RAIN  66  66 100 NE6       30.00F VSB 1            
BAR HARBOR     CLOUDY    65  64  97 CALM      30.02F FOG              
WISCASSET      CLOUDY    67  67 100 E3        30.02S                  
ROCKLAND       FOG       65  65 100 CALM      30.02S VSB 3/4          
FRYEBURG       CLOUDY    70  70 100 CALM      30.02F                  
LEWISTONAUBURN CLOUDY    69  68  96 CALM      30.01F                  
AUGUSTA        CLOUDY    69  67  93 CALM      30.02F                  
WATERVILLE     CLOUDY    68  67  96 CALM      29.99F                  
BANGOR         CLOUDY    70  68  93 SE3       30.02F                  
GREENVILLE       N/A     67  67 100 SE5       30.03S                  
MILLINOCKET    CLOUDY    69  66  90 VRB3      30.03F                  
HOULTON        FAIR      68  67  96 S5        30.01S                  
PRESQUE ISLE   FAIR      69  66  90 S3        30.01S                  
FRENCHVILLE    MOCLDY    72  64  76 S6        29.99F                  
CARIBOU        FAIR      68  65  90 S5        29.99F                  
$$

NHZ002-005-008-009-011-012-014-140500-
NEW HAMPSHIRE
  
CITY           SKY/WX    TMP DP  RH WIND       PRES   REMARKS
PORTSMOUTH     DRZL/FOG  66  66  99 NE7       29.97F VSB 3/4          
ROCHESTER      LGT RAIN  66  66 100 NE7       29.99F VSB 1            
NASHUA         LGT RAIN  69  69 100 CALM      29.97F                  
MANCHESTER     LGT RAIN  69  68  96 E7        29.95F                  
CONCORD        CLOUDY    69  68  96 NE3       29.97F                  
LACONIA        LGT RAIN  69  67  93 E8        30.00F                  
PLYMOUTH       RAIN      68  66  94 CALM      29.99F                  
BERLIN         MOCLDY    67  65  93 CALM      30.03S                  
WHITEFIELD     MOCLDY    68  66  93 CALM      30.02R                  
JAFFREY        RAIN      68  68 100 CALM      29.99S FOG              
KEENE          RAIN     N/A N/A N/A CALM      29.96S                  
LEBANON        CLOUDY    71  67  87 N3        29.97F                  
MT WASHINGTON  LGT RAIN  54  54 100 SE13        N/A  VSB 0            
$$

VTZ005-007-008-140500-
VERMONT
  
CITY           SKY/WX    TMP DP  RH WIND       PRES   REMARKS
ST JOHNSBURY     N/A     70  69  97 MISG      29.98S                  
MONTPELIER     LGT RAIN  68  67  96 CALM      30.04F                  
BURLINGTON     FAIR      75  65  70 E3        29.95F                  
$$

MAZ007-012-024-CTZ003-RIZ002-NYZ038-NYZ072-140500-
SOUTHERN NEW ENGLAND AND NY
  
CITY           SKY/WX    TMP DP  RH WIND       PRES   REMARKS
WORCESTER      FOG       66  66 100 NE5       29.98S VSB 1/2          
NANTUCKET      FOG       68  68 100 SE5       29.95S VSB 1/4          
PROVIDENCE     CLOUDY    74  73  97 CALM      29.94F FOG              
HARTFORD       CLOUDY    71  71 100 NE5       29.91F                  
ALBANY         CLOUDY    71  67  87 NE8       29.91F                  
NEW YORK CITY  MOCLDY    74  71  91 SE6       29.88F                  
$$

ANZ081-ANZ082-ANZ150-NHZ014-MEZ023>029-140500-
COASTAL MARINE OBSERVATIONS
  
STATION/POSITION TIME  TEMP    WIND        PRES    WAVE
                       AIR SEA DIR/SP/G            HT/PER
                 (UTC) (F)     (DEG/KT/KT) (MB)    (FT/S)
MOUNT DESERT ROC 0400   63      80/  7/  7 1016.5F
MATINICUS ROCK   0300   64      70/  9/  9 1015.8F
ISLE OF SHOALS   0300   66      30/ 12/ 14 1014.6F
JEFFREYS LEDGE   0336      71                N/A     2/ 3
$$

.............KEY..............
   WCI - WIND CHILL
   TC  - TEMPERATURE IN CELSIUS
   VSB - VISIBILITY IN MILES
   HX  - HEAT INDEX
   FAIR- INDICATES FEW OR NO CLOUDS BELOW 12,000 FT, WITH NO 
         SIGNIFICANT WEATHER AND/OR OBSTRUCTIONS TO VISIBILITY.